iso_date,epoch_date,Year,Hour,Min,DOY,POS_DOY,Lat,Lon,BP,Ts,Ta,has_bp,has_ts,has_ta,BuoyID,Buoy_Type,Buoy_Owner,Logistics,Hemisphere
2020-07-06T18:01:00Z,1594058460,2020,18,1,188.7507,188.7507,52.703,-50.631,-999.00,8.77,-999.0,no,yes,no,300234066513040,SVPGHI,AOML,UNKNOWN,North
2020-07-06T19:00:02Z,1594062003,2020,19,0,188.7917,188.7917,52.702,-50.622,-999.00,8.74,-999.0,no,yes,no,300234066513040,SVPGHI,AOML,UNKNOWN,North
2020-07-06T19:59:57Z,1594065597,2020,20,0,188.8333,188.8333,52.697,-50.614,-999.00,8.83,-999.0,no,yes,no,300234066513040,SVPGHI,AOML,UNKNOWN,North
2020-07-06T21:00:00Z,1594069200,2020,21,0,188.875,188.875,52.691,-50.608,-999.00,8.81,-999.0,no,yes,no,300234066513040,SVPGHI,AOML,UNKNOWN,North
2020-07-06T22:00:02Z,1594072803,2020,22,0,188.9167,188.9167,52.687,-50.604,-999.00,8.76,-999.0,no,yes,no,300234066513040,SVPGHI,AOML,UNKNOWN,North
2020-07-06T22:59:57Z,1594076397,2020,23,0,188.9583,188.9583,52.683,-50.6,-999.00,8.67,-999.0,no,yes,no,300234066513040,SVPGHI,AOML,UNKNOWN,North
2020-07-07T00:00:00Z,1594080000,2020,0,0,189.0,189.0,52.679,-50.597,-999.00,8.64,-999.0,no,yes,no,300234066513040,SVPGHI,AOML,UNKNOWN,North
2020-07-07T01:00:02Z,1594083603,2020,1,0,189.0417,189.0417,52.673,-50.593,-999.00,8.65,-999.0,no,yes,no,300234066513040,SVPGHI,AOML,UNKNOWN,North
2020-07-07T01:59:57Z,1594087197,2020,2,0,189.0833,189.0833,52.668,-50.586,-999.00,8.58,-999.0,no,yes,no,300234066513040,SVPGHI,AOML,UNKNOWN,North
2020-07-07T03:00:00Z,1594090800,2020,3,0,189.125,189.125,52.662,-50.577,-999.00,8.59,-999.0,no,yes,no,300234066513040,SVPGHI,AOML,UNKNOWN,North
2020-07-07T04:00:02Z,1594094403,2020,4,0,189.1667,189.1667,52.658,-50.573,-999.00,8.59,-999.0,no,yes,no,300234066513040,SVPGHI,AOML,UNKNOWN,North
2020-07-07T04:59:57Z,1594097997,2020,5,0,189.2083,189.2083,52.654,-50.568,-999.00,8.53,-999.0,no,yes,no,300234066513040,SVPGHI,AOML,UNKNOWN,North
2020-07-07T06:00:00Z,1594101600,2020,6,0,189.25,189.25,52.651,-50.561,-999.00,8.51,-999.0,no,yes,no,300234066513040,SVPGHI,AOML,UNKNOWN,North
2020-07-07T07:00:02Z,1594105203,2020,7,0,189.2917,189.2917,52.648,-50.555,-999.00,8.44,-999.0,no,yes,no,300234066513040,SVPGHI,AOML,UNKNOWN,North
2020-07-07T07:59:57Z,1594108797,2020,8,0,189.3333,189.3333,52.644,-50.548,-999.00,8.18,-999.0,no,yes,no,300234066513040,SVPGHI,AOML,UNKNOWN,North
2020-07-07T09:00:00Z,1594112400,2020,9,0,189.375,189.375,52.641,-50.542,-999.00,8.02,-999.0,no,yes,no,300234066513040,SVPGHI,AOML,UNKNOWN,North
2020-07-07T10:00:02Z,1594116003,2020,10,0,189.4167,189.4167,52.638,-50.54,-999.00,8.06,-999.0,no,yes,no,300234066513040,SVPGHI,AOML,UNKNOWN,North
2020-07-07T10:59:57Z,1594119597,2020,11,0,189.4583,189.4583,52.633,-50.534,-999.00,8.04,-999.0,no,yes,no,300234066513040,SVPGHI,AOML,UNKNOWN,North
2020-07-07T12:00:00Z,1594123200,2020,12,0,189.5,189.5,52.63,-50.529,-999.00,8.11,-999.0,no,yes,no,300234066513040,SVPGHI,AOML,UNKNOWN,North
2020-07-07T13:00:02Z,1594126803,2020,13,0,189.5417,189.5417,52.626,-50.522,-999.00,8.03,-999.0,no,yes,no,300234066513040,SVPGHI,AOML,UNKNOWN,North
2020-07-07T14:03:59Z,1594130639,2020,14,4,189.5861,189.5861,52.621,-50.517,-999.00,8.01,-999.0,no,yes,no,300234066513040,SVPGHI,AOML,UNKNOWN,North
2020-07-07T15:00:00Z,1594134000,2020,15,0,189.625,189.625,52.62,-50.51,-999.00,8.02,-999.0,no,yes,no,300234066513040,SVPGHI,AOML,UNKNOWN,North
2020-07-07T16:00:02Z,1594137603,2020,16,0,189.6667,189.6667,52.613,-50.505,-999.00,8.03,-999.0,no,yes,no,300234066513040,SVPGHI,AOML,UNKNOWN,North
2020-07-07T16:59:57Z,1594141197,2020,17,0,189.7083,189.7083,52.605,-50.494,-999.00,8.04,-999.0,no,yes,no,300234066513040,SVPGHI,AOML,UNKNOWN,North
2020-07-07T18:00:00Z,1594144800,2020,18,0,189.75,189.75,52.605,-50.489,-999.00,8.05,-999.0,no,yes,no,300234066513040,SVPGHI,AOML,UNKNOWN,North
2020-07-07T19:02:55Z,1594148576,2020,19,3,189.7937,189.7937,52.598,-50.478,-999.00,8.07,-999.0,no,yes,no,300234066513040,SVPGHI,AOML,UNKNOWN,North
2020-07-07T19:59:57Z,1594151997,2020,20,0,189.8333,189.8333,52.595,-50.471,-999.00,8.08,-999.0,no,yes,no,300234066513040,SVPGHI,AOML,UNKNOWN,North
2020-07-07T21:00:00Z,1594155600,2020,21,0,189.875,189.875,52.591,-50.465,-999.00,8.07,-999.0,no,yes,no,300234066513040,SVPGHI,AOML,UNKNOWN,North
2020-07-07T22:00:02Z,1594159203,2020,22,0,189.9167,189.9167,52.585,-50.458,-999.00,8.04,-999.0,no,yes,no,300234066513040,SVPGHI,AOML,UNKNOWN,North
2020-07-07T22:59:57Z,1594162797,2020,23,0,189.9583,189.9583,52.581,-50.454,-999.00,8.0,-999.0,no,yes,no,300234066513040,SVPGHI,AOML,UNKNOWN,North
2020-07-08T00:00:00Z,1594166400,2020,0,0,190.0,190.0,52.576,-50.45,-999.00,7.99,-999.0,no,yes,no,300234066513040,SVPGHI,AOML,UNKNOWN,North
2020-07-08T01:00:02Z,1594170003,2020,1,0,190.0417,190.0417,52.569,-50.449,-999.00,7.96,-999.0,no,yes,no,300234066513040,SVPGHI,AOML,UNKNOWN,North
2020-07-08T01:59:57Z,1594173597,2020,2,0,190.0833,190.0833,52.563,-50.452,-999.00,7.95,-999.0,no,yes,no,300234066513040,SVPGHI,AOML,UNKNOWN,North
2020-07-08T03:03:01Z,1594177381,2020,3,3,190.1271,190.1271,52.557,-50.445,-999.00,7.95,-999.0,no,yes,no,300234066513040,SVPGHI,AOML,UNKNOWN,North
2020-07-08T04:00:02Z,1594180803,2020,4,0,190.1667,190.1667,52.552,-50.44,-999.00,7.95,-999.0,no,yes,no,300234066513040,SVPGHI,AOML,UNKNOWN,North
2020-07-08T04:59:57Z,1594184397,2020,5,0,190.2083,190.2083,52.547,-50.434,-999.00,7.94,-999.0,no,yes,no,300234066513040,SVPGHI,AOML,UNKNOWN,North
2020-07-08T06:00:00Z,1594188000,2020,6,0,190.25,190.25,52.544,-50.429,-999.00,7.92,-999.0,no,yes,no,300234066513040,SVPGHI,AOML,UNKNOWN,North
2020-07-08T07:00:02Z,1594191603,2020,7,0,190.2917,190.2917,52.541,-50.424,-999.00,7.91,-999.0,no,yes,no,300234066513040,SVPGHI,AOML,UNKNOWN,North
2020-07-08T07:59:57Z,1594195197,2020,8,0,190.3333,190.3333,52.537,-50.419,-999.00,7.9,-999.0,no,yes,no,300234066513040,SVPGHI,AOML,UNKNOWN,North
2020-07-08T09:00:00Z,1594198800,2020,9,0,190.375,190.375,52.535,-50.413,-999.00,7.9,-999.0,no,yes,no,300234066513040,SVPGHI,AOML,UNKNOWN,North
2020-07-08T10:00:02Z,1594202403,2020,10,0,190.4167,190.4167,52.532,-50.411,-999.00,7.91,-999.0,no,yes,no,300234066513040,SVPGHI,AOML,UNKNOWN,North
2020-07-08T10:59:57Z,1594205997,2020,11,0,190.4583,190.4583,52.528,-50.407,-999.00,7.95,-999.0,no,yes,no,300234066513040,SVPGHI,AOML,UNKNOWN,North
2020-07-08T12:01:00Z,1594209660,2020,12,1,190.5007,190.5007,52.524,-50.406,-999.00,7.95,-999.0,no,yes,no,300234066513040,SVPGHI,AOML,UNKNOWN,North
2020-07-08T13:00:02Z,1594213203,2020,13,0,190.5417,190.5417,52.521,-50.402,-999.00,8.06,-999.0,no,yes,no,300234066513040,SVPGHI,AOML,UNKNOWN,North
2020-07-08T14:02:58Z,1594216979,2020,14,3,190.5854,190.5854,52.514,-50.401,-999.00,8.14,-999.0,no,yes,no,300234066513040,SVPGHI,AOML,UNKNOWN,North
2020-07-08T15:00:00Z,1594220400,2020,15,0,190.625,190.625,52.511,-50.397,-999.00,8.18,-999.0,no,yes,no,300234066513040,SVPGHI,AOML,UNKNOWN,North
2020-07-08T16:00:02Z,1594224003,2020,16,0,190.6667,190.6667,52.506,-50.39,-999.00,8.24,-999.0,no,yes,no,300234066513040,SVPGHI,AOML,UNKNOWN,North
2020-07-08T16:59:57Z,1594227597,2020,17,0,190.7083,190.7083,52.503,-50.382,-999.00,8.32,-999.0,no,yes,no,300234066513040,SVPGHI,AOML,UNKNOWN,North
2020-07-08T18:00:00Z,1594231200,2020,18,0,190.75,190.75,52.499,-50.374,-999.00,8.32,-999.0,no,yes,no,300234066513040,SVPGHI,AOML,UNKNOWN,North
2020-07-08T19:01:03Z,1594234863,2020,19,1,190.7924,190.7924,52.493,-50.369,-999.00,8.38,-999.0,no,yes,no,300234066513040,SVPGHI,AOML,UNKNOWN,North
2020-07-08T19:59:57Z,1594238397,2020,20,0,190.8333,190.8333,52.488,-50.363,-999.00,8.42,-999.0,no,yes,no,300234066513040,SVPGHI,AOML,UNKNOWN,North
2020-07-08T21:00:00Z,1594242000,2020,21,0,190.875,190.875,52.483,-50.358,-999.00,8.35,-999.0,no,yes,no,300234066513040,SVPGHI,AOML,UNKNOWN,North
2020-07-08T22:00:02Z,1594245603,2020,22,0,190.9167,190.9167,52.478,-50.357,-999.00,8.32,-999.0,no,yes,no,300234066513040,SVPGHI,AOML,UNKNOWN,North
2020-07-08T22:59:57Z,1594249197,2020,23,0,190.9583,190.9583,52.474,-50.355,-999.00,8.3,-999.0,no,yes,no,300234066513040,SVPGHI,AOML,UNKNOWN,North
2020-07-09T00:00:00Z,1594252800,2020,0,0,191.0,191.0,52.471,-50.35,-999.00,8.29,-999.0,no,yes,no,300234066513040,SVPGHI,AOML,UNKNOWN,North
2020-07-09T01:00:02Z,1594256403,2020,1,0,191.0417,191.0417,52.464,-50.349,-999.00,8.26,-999.0,no,yes,no,300234066513040,SVPGHI,AOML,UNKNOWN,North
2020-07-09T01:59:57Z,1594259997,2020,2,0,191.0833,191.0833,52.462,-50.349,-999.00,8.24,-999.0,no,yes,no,300234066513040,SVPGHI,AOML,UNKNOWN,North
2020-07-09T03:00:00Z,1594263600,2020,3,0,191.125,191.125,52.459,-50.347,-999.00,8.23,-999.0,no,yes,no,300234066513040,SVPGHI,AOML,UNKNOWN,North
2020-07-09T04:01:03Z,1594267263,2020,4,1,191.1674,191.1674,52.457,-50.341,-999.00,8.21,-999.0,no,yes,no,300234066513040,SVPGHI,AOML,UNKNOWN,North
2020-07-09T04:59:57Z,1594270797,2020,5,0,191.2083,191.2083,52.455,-50.335,-999.00,8.18,-999.0,no,yes,no,300234066513040,SVPGHI,AOML,UNKNOWN,North
2020-07-09T06:00:00Z,1594274400,2020,6,0,191.25,191.25,52.45,-50.324,-999.00,8.14,-999.0,no,yes,no,300234066513040,SVPGHI,AOML,UNKNOWN,North
2020-07-09T07:00:02Z,1594278003,2020,7,0,191.2917,191.2917,52.445,-50.314,-999.00,8.13,-999.0,no,yes,no,300234066513040,SVPGHI,AOML,UNKNOWN,North
2020-07-09T07:59:57Z,1594281597,2020,8,0,191.3333,191.3333,52.441,-50.307,-999.00,8.12,-999.0,no,yes,no,300234066513040,SVPGHI,AOML,UNKNOWN,North
2020-07-09T09:00:00Z,1594285200,2020,9,0,191.375,191.375,52.437,-50.302,-999.00,8.07,-999.0,no,yes,no,300234066513040,SVPGHI,AOML,UNKNOWN,North
2020-07-09T10:03:56Z,1594289036,2020,10,4,191.4194,191.4194,52.428,-50.294,-999.00,8.06,-999.0,no,yes,no,300234066513040,SVPGHI,AOML,UNKNOWN,North
2020-07-09T11:01:58Z,1594292518,2020,11,2,191.4597,191.4597,52.422,-50.29,-999.00,8.05,-999.0,no,yes,no,300234066513040,SVPGHI,AOML,UNKNOWN,North
2020-07-09T12:00:00Z,1594296000,2020,12,0,191.5,191.5,52.416,-50.286,-999.00,8.07,-999.0,no,yes,no,300234066513040,SVPGHI,AOML,UNKNOWN,North
2020-07-09T13:00:02Z,1594299603,2020,13,0,191.5417,191.5417,52.408,-50.283,-999.00,8.09,-999.0,no,yes,no,300234066513040,SVPGHI,AOML,UNKNOWN,North
2020-07-09T13:59:57Z,1594303197,2020,14,0,191.5833,191.5833,52.402,-50.283,-999.00,8.08,-999.0,no,yes,no,300234066513040,SVPGHI,AOML,UNKNOWN,North
2020-07-09T15:00:00Z,1594306800,2020,15,0,191.625,191.625,52.399,-50.281,-999.00,8.08,-999.0,no,yes,no,300234066513040,SVPGHI,AOML,UNKNOWN,North
2020-07-09T16:00:02Z,1594310403,2020,16,0,191.6667,191.6667,52.397,-50.279,-999.00,8.08,-999.0,no,yes,no,300234066513040,SVPGHI,AOML,UNKNOWN,North
2020-07-09T16:59:57Z,1594313997,2020,17,0,191.7083,191.7083,52.394,-50.271,-999.00,8.1,-999.0,no,yes,no,300234066513040,SVPGHI,AOML,UNKNOWN,North
2020-07-09T18:00:00Z,1594317600,2020,18,0,191.75,191.75,52.391,-50.262,-999.00,8.12,-999.0,no,yes,no,300234066513040,SVPGHI,AOML,UNKNOWN,North
2020-07-09T19:00:02Z,1594321203,2020,19,0,191.7917,191.7917,52.387,-50.253,-999.00,8.09,-999.0,no,yes,no,300234066513040,SVPGHI,AOML,UNKNOWN,North
2020-07-09T19:59:57Z,1594324797,2020,20,0,191.8333,191.8333,52.379,-50.244,-999.00,8.09,-999.0,no,yes,no,300234066513040,SVPGHI,AOML,UNKNOWN,North
2020-07-09T21:04:01Z,1594328642,2020,21,4,191.8778,191.8778,52.374,-50.184,-999.00,8.12,-999.0,no,yes,no,300234066513040,SVPGHI,AOML,UNKNOWN,North
2020-07-09T22:03:56Z,1594332236,2020,22,4,191.9194,191.9194,52.342,-50.25,-999.00,8.11,-999.0,no,yes,no,300234066513040,SVPGHI,AOML,UNKNOWN,North
2020-07-09T23:03:59Z,1594335839,2020,23,4,191.9611,191.9611,-90.0,-180.0,-999.00,8.11,-999.0,no,yes,no,300234066513040,SVPGHI,AOML,UNKNOWN,North
2020-07-10T00:03:01Z,1594339381,2020,0,3,192.0021,192.0021,52.352,-50.23,-999.00,8.09,-999.0,no,yes,no,300234066513040,SVPGHI,AOML,UNKNOWN,North
2020-07-10T01:00:02Z,1594342803,2020,1,0,192.0417,192.0417,52.347,-50.23,-999.00,8.08,-999.0,no,yes,no,300234066513040,SVPGHI,AOML,UNKNOWN,North
2020-07-10T01:59:57Z,1594346397,2020,2,0,192.0833,192.0833,52.341,-50.23,-999.00,8.08,-999.0,no,yes,no,300234066513040,SVPGHI,AOML,UNKNOWN,North
2020-07-10T03:00:00Z,1594350000,2020,3,0,192.125,192.125,52.336,-50.23,-999.00,8.08,-999.0,no,yes,no,300234066513040,SVPGHI,AOML,UNKNOWN,North
2020-07-10T04:02:55Z,1594353776,2020,4,3,192.1687,192.1687,52.331,-50.231,-999.00,8.07,-999.0,no,yes,no,300234066513040,SVPGHI,AOML,UNKNOWN,North
2020-07-10T04:59:57Z,1594357197,2020,5,0,192.2083,192.2083,52.327,-50.227,-999.00,8.06,-999.0,no,yes,no,300234066513040,SVPGHI,AOML,UNKNOWN,North
2020-07-10T06:00:00Z,1594360800,2020,6,0,192.25,192.25,52.321,-50.221,-999.00,8.06,-999.0,no,yes,no,300234066513040,SVPGHI,AOML,UNKNOWN,North
2020-07-10T07:01:03Z,1594364463,2020,7,1,192.2924,192.2924,52.323,-50.223,-999.00,8.06,-999.0,no,yes,no,300234066513040,SVPGHI,AOML,UNKNOWN,North
2020-07-10T07:59:57Z,1594367997,2020,8,0,192.3333,192.3333,52.321,-50.214,-999.00,8.06,-999.0,no,yes,no,300234066513040,SVPGHI,AOML,UNKNOWN,North
2020-07-10T09:00:00Z,1594371600,2020,9,0,192.375,192.375,52.317,-50.206,-999.00,8.06,-999.0,no,yes,no,300234066513040,SVPGHI,AOML,UNKNOWN,North
2020-07-10T10:00:02Z,1594375203,2020,10,0,192.4167,192.4167,52.309,-50.2,-999.00,8.08,-999.0,no,yes,no,300234066513040,SVPGHI,AOML,UNKNOWN,North
2020-07-10T10:59:57Z,1594378797,2020,11,0,192.4583,192.4583,52.302,-50.193,-999.00,8.12,-999.0,no,yes,no,300234066513040,SVPGHI,AOML,UNKNOWN,North
2020-07-10T12:00:00Z,1594382400,2020,12,0,192.5,192.5,52.297,-50.189,-999.00,8.26,-999.0,no,yes,no,300234066513040,SVPGHI,AOML,UNKNOWN,North
2020-07-10T13:00:02Z,1594386003,2020,13,0,192.5417,192.5417,52.29,-50.187,-999.00,8.33,-999.0,no,yes,no,300234066513040,SVPGHI,AOML,UNKNOWN,North
2020-07-10T13:59:57Z,1594389597,2020,14,0,192.5833,192.5833,52.283,-50.186,-999.00,8.4,-999.0,no,yes,no,300234066513040,SVPGHI,AOML,UNKNOWN,North
2020-07-10T15:00:00Z,1594393200,2020,15,0,192.625,192.625,52.276,-50.186,-999.00,8.5,-999.0,no,yes,no,300234066513040,SVPGHI,AOML,UNKNOWN,North
2020-07-10T16:00:02Z,1594396803,2020,16,0,192.6667,192.6667,52.272,-50.186,-999.00,8.61,-999.0,no,yes,no,300234066513040,SVPGHI,AOML,UNKNOWN,North
2020-07-10T16:59:57Z,1594400397,2020,17,0,192.7083,192.7083,52.265,-50.183,-999.00,8.89,-999.0,no,yes,no,300234066513040,SVPGHI,AOML,UNKNOWN,North
2020-07-10T18:00:00Z,1594404000,2020,18,0,192.75,192.75,52.262,-50.183,-999.00,9.01,-999.0,no,yes,no,300234066513040,SVPGHI,AOML,UNKNOWN,North
2020-07-10T19:00:02Z,1594407603,2020,19,0,192.7917,192.7917,52.257,-50.179,-999.00,9.0,-999.0,no,yes,no,300234066513040,SVPGHI,AOML,UNKNOWN,North
2020-07-10T19:59:57Z,1594411197,2020,20,0,192.8333,192.8333,52.253,-50.177,-999.00,9.11,-999.0,no,yes,no,300234066513040,SVPGHI,AOML,UNKNOWN,North
2020-07-10T21:00:00Z,1594414800,2020,21,0,192.875,192.875,52.25,-50.174,-999.00,9.17,-999.0,no,yes,no,300234066513040,SVPGHI,AOML,UNKNOWN,North
2020-07-10T22:00:02Z,1594418403,2020,22,0,192.9167,192.9167,52.246,-50.169,-999.00,9.05,-999.0,no,yes,no,300234066513040,SVPGHI,AOML,UNKNOWN,North
2020-07-10T22:59:57Z,1594421997,2020,23,0,192.9583,192.9583,52.241,-50.165,-999.00,9.01,-999.0,no,yes,no,300234066513040,SVPGHI,AOML,UNKNOWN,North
2020-07-11T00:00:00Z,1594425600,2020,0,0,193.0,193.0,52.236,-50.162,-999.00,8.96,-999.0,no,yes,no,300234066513040,SVPGHI,AOML,UNKNOWN,North
2020-07-11T01:00:02Z,1594429203,2020,1,0,193.0417,193.0417,52.233,-50.158,-999.00,8.9,-999.0,no,yes,no,300234066513040,SVPGHI,AOML,UNKNOWN,North
2020-07-11T01:59:57Z,1594432797,2020,2,0,193.0833,193.0833,52.229,-50.155,-999.00,8.82,-999.0,no,yes,no,300234066513040,SVPGHI,AOML,UNKNOWN,North
2020-07-11T03:01:00Z,1594436460,2020,3,1,193.1257,193.1257,52.218,-50.144,-999.00,8.78,-999.0,no,yes,no,300234066513040,SVPGHI,AOML,UNKNOWN,North
2020-07-11T04:00:02Z,1594440003,2020,4,0,193.1667,193.1667,52.218,-50.14,-999.00,8.75,-999.0,no,yes,no,300234066513040,SVPGHI,AOML,UNKNOWN,North
2020-07-11T04:59:57Z,1594443597,2020,5,0,193.2083,193.2083,52.21,-50.131,-999.00,8.66,-999.0,no,yes,no,300234066513040,SVPGHI,AOML,UNKNOWN,North
2020-07-11T06:00:00Z,1594447200,2020,6,0,193.25,193.25,52.203,-50.127,-999.00,8.49,-999.0,no,yes,no,300234066513040,SVPGHI,AOML,UNKNOWN,North
2020-07-11T07:00:02Z,1594450803,2020,7,0,193.2917,193.2917,52.195,-50.122,-999.00,8.48,-999.0,no,yes,no,300234066513040,SVPGHI,AOML,UNKNOWN,North
2020-07-11T07:59:57Z,1594454397,2020,8,0,193.3333,193.3333,52.189,-50.12,-999.00,8.49,-999.0,no,yes,no,300234066513040,SVPGHI,AOML,UNKNOWN,North
2020-07-11T09:01:00Z,1594458060,2020,9,1,193.3757,193.3757,52.182,-50.12,-999.00,8.49,-999.0,no,yes,no,300234066513040,SVPGHI,AOML,UNKNOWN,North
2020-07-11T10:00:02Z,1594461603,2020,10,0,193.4167,193.4167,52.179,-50.119,-999.00,8.5,-999.0,no,yes,no,300234066513040,SVPGHI,AOML,UNKNOWN,North
2020-07-11T10:59:57Z,1594465197,2020,11,0,193.4583,193.4583,52.177,-50.118,-999.00,8.52,-999.0,no,yes,no,300234066513040,SVPGHI,AOML,UNKNOWN,North
2020-07-11T12:00:00Z,1594468800,2020,12,0,193.5,193.5,52.176,-50.114,-999.00,8.55,-999.0,no,yes,no,300234066513040,SVPGHI,AOML,UNKNOWN,North
2020-07-11T13:00:02Z,1594472403,2020,13,0,193.5417,193.5417,52.173,-50.111,-999.00,8.58,-999.0,no,yes,no,300234066513040,SVPGHI,AOML,UNKNOWN,North
2020-07-11T13:59:57Z,1594475997,2020,14,0,193.5833,193.5833,52.167,-50.105,-999.00,8.61,-999.0,no,yes,no,300234066513040,SVPGHI,AOML,UNKNOWN,North
2020-07-11T15:03:01Z,1594479781,2020,15,3,193.6271,193.6271,52.165,-50.095,-999.00,8.66,-999.0,no,yes,no,300234066513040,SVPGHI,AOML,UNKNOWN,North
2020-07-11T16:00:02Z,1594483203,2020,16,0,193.6667,193.6667,52.163,-50.087,-999.00,8.69,-999.0,no,yes,no,300234066513040,SVPGHI,AOML,UNKNOWN,North
2020-07-11T16:59:57Z,1594486797,2020,17,0,193.7083,193.7083,52.159,-50.077,-999.00,8.7,-999.0,no,yes,no,300234066513040,SVPGHI,AOML,UNKNOWN,North
2020-07-11T18:00:00Z,1594490400,2020,18,0,193.75,193.75,52.152,-50.066,-999.00,8.71,-999.0,no,yes,no,300234066513040,SVPGHI,AOML,UNKNOWN,North
2020-07-11T19:00:02Z,1594494003,2020,19,0,193.7917,193.7917,52.145,-50.054,-999.00,8.69,-999.0,no,yes,no,300234066513040,SVPGHI,AOML,UNKNOWN,North
2020-07-11T19:59:57Z,1594497597,2020,20,0,193.8333,193.8333,52.136,-50.041,-999.00,8.69,-999.0,no,yes,no,300234066513040,SVPGHI,AOML,UNKNOWN,North
2020-07-11T21:01:00Z,1594501260,2020,21,1,193.8757,193.8757,52.128,-50.033,-999.00,8.67,-999.0,no,yes,no,300234066513040,SVPGHI,AOML,UNKNOWN,North
2020-07-11T22:00:02Z,1594504803,2020,22,0,193.9167,193.9167,52.12,-50.025,-999.00,8.63,-999.0,no,yes,no,300234066513040,SVPGHI,AOML,UNKNOWN,North
2020-07-11T22:59:57Z,1594508397,2020,23,0,193.9583,193.9583,52.113,-50.019,-999.00,8.61,-999.0,no,yes,no,300234066513040,SVPGHI,AOML,UNKNOWN,North
2020-07-12T00:04:01Z,1594512242,2020,0,4,194.0028,194.0028,52.107,-50.019,-999.00,8.59,-999.0,no,yes,no,300234066513040,SVPGHI,AOML,UNKNOWN,North
2020-07-12T01:00:02Z,1594515603,2020,1,0,194.0417,194.0417,52.102,-50.016,-999.00,8.57,-999.0,no,yes,no,300234066513040,SVPGHI,AOML,UNKNOWN,North
2020-07-12T01:59:57Z,1594519197,2020,2,0,194.0833,194.0833,52.102,-50.015,-999.00,8.55,-999.0,no,yes,no,300234066513040,SVPGHI,AOML,UNKNOWN,North
2020-07-12T03:00:00Z,1594522800,2020,3,0,194.125,194.125,52.099,-50.009,-999.00,8.53,-999.0,no,yes,no,300234066513040,SVPGHI,AOML,UNKNOWN,North
2020-07-12T04:00:02Z,1594526403,2020,4,0,194.1667,194.1667,52.094,-50.002,-999.00,8.52,-999.0,no,yes,no,300234066513040,SVPGHI,AOML,UNKNOWN,North
2020-07-12T04:59:57Z,1594529997,2020,5,0,194.2083,194.2083,52.093,-49.995,-999.00,8.51,-999.0,no,yes,no,300234066513040,SVPGHI,AOML,UNKNOWN,North
2020-07-12T06:00:00Z,1594533600,2020,6,0,194.25,194.25,52.091,-49.987,-999.00,8.49,-999.0,no,yes,no,300234066513040,SVPGHI,AOML,UNKNOWN,North
2020-07-12T07:00:02Z,1594537203,2020,7,0,194.2917,194.2917,52.09,-49.975,-999.00,8.46,-999.0,no,yes,no,300234066513040,SVPGHI,AOML,UNKNOWN,North
2020-07-12T07:59:57Z,1594540797,2020,8,0,194.3333,194.3333,52.09,-49.96,-999.00,8.43,-999.0,no,yes,no,300234066513040,SVPGHI,AOML,UNKNOWN,North
2020-07-12T09:00:00Z,1594544400,2020,9,0,194.375,194.375,52.083,-49.943,-999.00,8.35,-999.0,no,yes,no,300234066513040,SVPGHI,AOML,UNKNOWN,North
2020-07-12T10:00:02Z,1594548003,2020,10,0,194.4167,194.4167,52.077,-49.929,-999.00,8.33,-999.0,no,yes,no,300234066513040,SVPGHI,AOML,UNKNOWN,North
2020-07-12T10:59:57Z,1594551597,2020,11,0,194.4583,194.4583,52.07,-49.916,-999.00,8.32,-999.0,no,yes,no,300234066513040,SVPGHI,AOML,UNKNOWN,North
2020-07-12T12:00:00Z,1594555200,2020,12,0,194.5,194.5,52.065,-49.897,-999.00,8.33,-999.0,no,yes,no,300234066513040,SVPGHI,AOML,UNKNOWN,North
2020-07-12T13:00:02Z,1594558803,2020,13,0,194.5417,194.5417,52.056,-49.888,-999.00,8.33,-999.0,no,yes,no,300234066513040,SVPGHI,AOML,UNKNOWN,North
2020-07-12T13:59:57Z,1594562397,2020,14,0,194.5833,194.5833,52.048,-49.879,-999.00,8.34,-999.0,no,yes,no,300234066513040,SVPGHI,AOML,UNKNOWN,North
2020-07-12T15:00:00Z,1594566000,2020,15,0,194.625,194.625,52.042,-49.869,-999.00,8.37,-999.0,no,yes,no,300234066513040,SVPGHI,AOML,UNKNOWN,North
2020-07-12T16:00:02Z,1594569603,2020,16,0,194.6667,194.6667,52.033,-49.858,-999.00,8.35,-999.0,no,yes,no,300234066513040,SVPGHI,AOML,UNKNOWN,North
2020-07-12T16:59:57Z,1594573197,2020,17,0,194.7083,194.7083,52.028,-49.852,-999.00,8.36,-999.0,no,yes,no,300234066513040,SVPGHI,AOML,UNKNOWN,North
2020-07-12T18:00:00Z,1594576800,2020,18,0,194.75,194.75,52.024,-49.845,-999.00,8.38,-999.0,no,yes,no,300234066513040,SVPGHI,AOML,UNKNOWN,North
2020-07-12T19:00:02Z,1594580403,2020,19,0,194.7917,194.7917,52.019,-49.835,-999.00,8.37,-999.0,no,yes,no,300234066513040,SVPGHI,AOML,UNKNOWN,North
2020-07-12T19:59:57Z,1594583997,2020,20,0,194.8333,194.8333,52.015,-49.826,-999.00,8.38,-999.0,no,yes,no,300234066513040,SVPGHI,AOML,UNKNOWN,North
2020-07-12T21:00:00Z,1594587600,2020,21,0,194.875,194.875,52.012,-49.817,-999.00,8.4,-999.0,no,yes,no,300234066513040,SVPGHI,AOML,UNKNOWN,North
2020-07-12T22:00:02Z,1594591203,2020,22,0,194.9167,194.9167,52.007,-49.811,-999.00,8.38,-999.0,no,yes,no,300234066513040,SVPGHI,AOML,UNKNOWN,North
2020-07-12T23:00:57Z,1594594858,2020,23,1,194.959,194.959,52.002,-49.799,-999.00,8.38,-999.0,no,yes,no,300234066513040,SVPGHI,AOML,UNKNOWN,North
2020-07-13T00:04:01Z,1594598642,2020,0,4,195.0028,195.0028,52.001,-49.789,-999.00,8.38,-999.0,no,yes,no,300234066513040,SVPGHI,AOML,UNKNOWN,North
2020-07-13T01:02:03Z,1594602124,2020,1,2,195.0431,195.0431,52.002,-49.778,-999.00,8.36,-999.0,no,yes,no,300234066513040,SVPGHI,AOML,UNKNOWN,North
2020-07-13T01:59:57Z,1594605597,2020,2,0,195.0833,195.0833,52.002,-49.765,-999.00,8.32,-999.0,no,yes,no,300234066513040,SVPGHI,AOML,UNKNOWN,North
2020-07-13T03:00:00Z,1594609200,2020,3,0,195.125,195.125,51.999,-49.752,-999.00,8.31,-999.0,no,yes,no,300234066513040,SVPGHI,AOML,UNKNOWN,North
2020-07-13T04:00:02Z,1594612803,2020,4,0,195.1667,195.1667,51.995,-49.737,-999.00,8.3,-999.0,no,yes,no,300234066513040,SVPGHI,AOML,UNKNOWN,North
2020-07-13T04:59:57Z,1594616397,2020,5,0,195.2083,195.2083,51.992,-49.718,-999.00,8.27,-999.0,no,yes,no,300234066513040,SVPGHI,AOML,UNKNOWN,North
2020-07-13T06:00:00Z,1594620000,2020,6,0,195.25,195.25,51.986,-49.7,-999.00,8.24,-999.0,no,yes,no,300234066513040,SVPGHI,AOML,UNKNOWN,North
2020-07-13T07:01:03Z,1594623663,2020,7,1,195.2924,195.2924,51.983,-49.687,-999.00,8.21,-999.0,no,yes,no,300234066513040,SVPGHI,AOML,UNKNOWN,North
2020-07-13T07:59:57Z,1594627197,2020,8,0,195.3333,195.3333,51.979,-49.674,-999.00,8.17,-999.0,no,yes,no,300234066513040,SVPGHI,AOML,UNKNOWN,North
2020-07-13T09:00:00Z,1594630800,2020,9,0,195.375,195.375,51.972,-49.661,-999.00,8.17,-999.0,no,yes,no,300234066513040,SVPGHI,AOML,UNKNOWN,North
2020-07-13T10:00:02Z,1594634403,2020,10,0,195.4167,195.4167,51.966,-49.648,-999.00,8.16,-999.0,no,yes,no,300234066513040,SVPGHI,AOML,UNKNOWN,North
2020-07-13T10:59:57Z,1594637997,2020,11,0,195.4583,195.4583,51.96,-49.635,-999.00,8.13,-999.0,no,yes,no,300234066513040,SVPGHI,AOML,UNKNOWN,North
2020-07-13T12:01:00Z,1594641660,2020,12,1,195.5007,195.5007,51.954,-49.626,-999.00,8.12,-999.0,no,yes,no,300234066513040,SVPGHI,AOML,UNKNOWN,North
2020-07-13T13:00:02Z,1594645203,2020,13,0,195.5417,195.5417,51.95,-49.618,-999.00,8.13,-999.0,no,yes,no,300234066513040,SVPGHI,AOML,UNKNOWN,North